Regional Weather Roundup
Issued by NWS

Home | Current Version | Previous Version | Text Only | Print | Product List | Glossary Off
Versions: 1 2 3 4 5 6 7 8 9 10 11 12 13 14 15 16 17 18 19 20 21 22 23 24 25 26 27 28

000
ASUS45 KSLC 291910
RWRUT

UTAH REGIONAL WEATHER ROUNDUP
NATIONAL WEATHER SERVICE SALT LAKE CITY UT
100 PM MDT MON AUG 29 2016

UTZ001>011-023>025-292000-

NORTHERN UTAH

CITY           SKY/WX    TMP DP  RH WIND       PRES   REMARKS
BRIGHAM CITY     N/A     85  32  15 CALM      30.21F
HILL AFB       SUNNY     84  40  20 N7        30.24F
LOGAN          SUNNY     80  39  23 N5        30.23F
OGDEN          SUNNY     86  42  21 VRB6      30.21F
PROVO AIRPORT  MOSUNNY  N/A N/A N/A VRB5      30.24F
SALT LAKE CITY MOSUNNY   89  36  15 VRB6      30.19F
VERNAL         SUNNY     80  39  23 CALM      30.27F
WENDOVER       SUNNY     84  34  16 E5        30.23F
HEBER CITY     SUNNY     79  32  18 CALM      30.28F
WEST JORDAN    SUNNY     87  39  18 NE6       30.23F

$$

UTZ012>022-026-027-292000-

SOUTHERN/CENTRAL UTAH

CITY           SKY/WX    TMP DP  RH WIND       PRES   REMARKS
BLANDING       SUNNY     75  42  29 S7        30.38F
BRYCE CANYON   MOSUNNY   73  32  22 NE13      30.42F
CEDAR CITY     SUNNY     84  35  17 N7        30.27F
DELTA          SUNNY     84  28  13 S3        30.23F
MILFORD        NOT AVBL
MOAB/CYNLANDS  SUNNY     83  43  24 MISG      30.19F
PRICE          MOSUNNY   83  34  17 VRB6      30.28F
ST GEORGE      CLEAR     86  50  28 S3        30.11F

$$

REGIONAL REPORTS     COLORADO/ARIZONA

CITY           SKY/WX    TMP DP  RH WIND       PRES   REMARKS
CRAIG, CO      CLOUDY    76  37  24 NE3       30.34F
GRAND JUNCTION CLOUDY    79  41  25 S7        30.24F
RIFLE          CLOUDY    70  46  42 VRB3      30.32F
MONTROSE       CLOUDY    70  45  40 VRB3      30.33F
CORTEZ         SUNNY     75  47  36 VRB5      30.30F
PAGE, AZ       SUNNY     84  45  25 NE5       30.19F
GRAND CANYON   SUNNY     76  43  30 NE12G20   30.36F
KINGMAN        SUNNY     91  44  19 NW3       30.12F
FLAGSTAFF      MOSUNNY   72  44  36 NE16      30.35F

$$

REGIONAL REPORTS    NEVADA/IDAHO/WYOMING

CITY           SKY/WX    TMP DP  RH WIND       PRES   REMARKS
LAS VEGAS, NV  MOSUNNY   96  41  15 N5        30.00F HX  92
ELY            SUNNY     84  23  10 VRB5      30.33F
ELKO           MOSUNNY   85  26  11 SW5       30.24F
POCATELLO, ID  CLOUDY    84  42  22 N8        30.24F
BURLEY         SUNNY     86  41  20 NE9       30.18F
EVANSTON, WY   SUNNY     79  26  14 VRB5      30.41F
ROCK SPRINGS   SUNNY     80  24  12 E8        30.39F

$$




USA.gov is the U.S. government's official web portal to all federal, state and local government web resources and services.